User: anonymous   Login
Location: Berbisdorf
(50.7638°N, 12.9442°E)
Time: 01:12:16
(UTC+00:00)
Language:

BREEZE-M DEB (TANK) - Orbit

View from above orbital plane
View from above orbital plane
View from above satellite
View from above satellite

Ground track
Ground track

The orbit data is extracted from the following two-line orbital elements,

1 39010U 12065C   21021.17771075  .00000396  00000-0  11825-3 0  9996
2 39010  49.6918 324.3169 4657796 283.3813  30.3238  6.16664597181168
Epoch (UTC): 21 January 2021 04:15:54
Eccentricity: 0.4657796
inclination: 49.6918°
perigee height: 332 km
apogee height: 12034 km
right ascension of ascending node: 324.3169°
argument of perigee: 283.3813°
revolutions per day: 6.16664597
mean anomaly at epoch: 30.3238°
orbit number at epoch: 18116

The dashed part of the orbit path shows where the satellite is in the earth's shadow,  

DLR